User: anonymous   Login
Location: Sternwarte Stuttgart
(48.7670°N, 9.1830°E)
Time: 08:06:24
(UTC+02:00)
Language:

CZ-4B R/B - Orbit

View from above orbital plane
View from above orbital plane
View from above satellite
View from above satellite

Ground track
Ground track

The orbit data is extracted from the following two-line orbital elements,

1 27432U 02024C   19292.14080821 -.00000032  00000-0  68947-5 0  9998
2 27432  99.0788 285.3515 0051064 139.0831 285.1755 14.14084682899480
Epoch (UTC): 19 October 2019 03:22:45
Eccentricity: 0.0051064
inclination: 99.0788°
perigee height: 808 km
apogee height: 882 km
right ascension of ascending node: 285.3515°
argument of perigee: 139.0831°
revolutions per day: 14.14084682
mean anomaly at epoch: 285.1755°
orbit number at epoch: 89948

The dashed part of the orbit path shows where the satellite is in the earth's shadow,  

DLR